CAPE
1706 1521 1446 1586 1729 2176 2317 2451 2463 2362 2345 2174 1683 1471 1254 1226 1323 1446 1576 1530 1460 1719 1546 1415 1918 1554 2091 1618 1696 1548 1805 1765 1776 1687 1617 1567 1496 1645 1721 1609 1471 1352 1160 928 858 757 466 316 230 554 176 411 513 708 596 1085 1277 702 556 757 570 689
1778 1910 1838 1928 1878 1976 2165 2073 2065 2079 2158 2056 1612 1378 1153 1098 1201 1273 1244 1405 1779 1612 1616 1821 1834 1803 1929 1624 1766 1779 1923 1814 1766 1618 1686 1609 1542 1580 1555 1526 1362 1130 986 972 942 460 443 538 626 503 434 555 556 725 898 898 1278 1023 531 534 664 942
1788 1721 1654 1532 1656 1955 2022 1929 1557 1568 1543 1601 1295 1165 1101 1110 918 1073 1364 1513 1728 1702 1679 1627 1818 1752 1646 1602 1722 1636 1864 1671 1738 1670 1679 1807 1661 1604 1558 1537 1359 1136 980 898 848 109 155 106 214 543 555 532 47 658 769 1108 1307 792 472 440 411 1047
1803 1668 1613 1602 1909 1690 2026 1845 1733 1860 1538 1908 1280 880 983 821 940 941 1207 1356 1576 1796 1748 1782 1534 1396 1089 1612 1462 1728 1814 1659 1744 1631 1638 1678 1680 1692 1626 1575 1437 1264 1112 659 69 36 38 236 16 79 20 106 295 495 1000 1079 1174 893 542 523 788 1147
1802 1749 1580 1649 1800 1828 1871 1648 1448 1195 1272 1270 1047 917 830 1018 773 972 997 963 986 1235 1485 1619 1575 1367 1126 1272 1572 1676 1681 1528 1437 1577 1791 1321 1585 1256 1668 1248 1145 1346 804 455 269 141 176 208 102 86 0 0 141 682 806 1161 1233 1294 559 509 861 1192
1798 1770 1682 1755 1968 1937 1949 1713 1607 1420 1154 1324 1309 1022 1038 923 827 917 834 1175 1249 1102 1300 1297 1603 1700 1229 1198 1166 1650 1566 1577 1213 1102 1450 1415 1210 916 1218 744 944 1060 905 605 509 280 346 460 536 198 53 0 302 703 664 807 1027 1458 598 639 1117 1265
1797 1555 1523 1397 1523 1676 1590 1955 1639 1232 1449 1095 1206 1291 1316 1145 1132 1171 1132 1280 1772 1506 1163 1420 1379 1517 1440 1115 990 1348 1283 921 1058 1185 1451 1251 1109 1364 1372 1000 1197 895 806 578 336 221 400 536 452 378 184 170 139 350 506 488 1153 1222 743 721 1128 1215
1810 1785 1183 1302 1317 1481 1538 1585 1825 1382 1168 1123 1086 1196 1299 1259 1161 928 1352 1619 1661 1601 1455 1382 1448 1392 1321 1668 1296 1523 1425 1190 1464 1308 987 1643 1310 1016 907 1007 1320 565 651 316 401 243 207 204 478 379 488 64 214 173 445 472 886 1043 952 808 1054 1351
1890 2146 1434 1221 1100 1286 1567 1812 2027 1753 1471 1252 1221 1449 1495 1308 1458 1192 1212 1118 1556 1915 1656 1666 1368 1294 1344 1384 1640 1391 1111 928 1477 1503 1162 1239 1056 732 805 1390 1465 1016 722 367 234 290 252 141 400 502 326 193 79 36 153 379 936 1164 1101 878 820 1330
1584 1436 1691 1227 916 971 1384 1499 1549 1875 1518 1527 1406 1372 1375 1159 1209 1190 1205 1203 1451 1570 1388 1262 1128 1480 1101 1679 1542 1213 1114 887 1189 1582 1625 1682 1072 1530 1301 1778 1378 979 839 551 375 227 474 193 221 223 290 209 90 118 148 172 718 880 889 1065 919 1088
1766 1908 1323 1557 1126 1282 1416 1613 1443 1531 1540 1636 1299 1187 1251 1014 1206 1483 1535 1270 1394 1328 1095 1231 1442 1524 1852 1734 1301 1094 1139 974 867 774 1347 1105 1163 1791 1462 1173 882 1098 986 745 626 333 210 150 139 237 145 65 57 60 39 114 277 696 857 1132 1115 917
1414 1259 1127 1225 1516 1349 1379 1462 1479 1465 1946 1502 1220 1048 1080 997 1297 1390 1304 1628 1672 1632 1391 1526 1528 1548 1591 1335 1192 1058 683 1035 657 1148 988 923 836 1054 986 1277 852 766 876 1334 891 624 354 593 176 93 26 54 10 28 12 44 192 287 645 1099 1209 973
1427 978 960 1085 1512 1506 1593 1584 1803 1832 1438 1500 1227 1070 1263 1123 1369 1475 1376 1621 1846 1363 1045 1303 1294 1266 1343 1557 1583 1080 851 909 999 870 773 968 983 872 832 952 930 646 741 1086 1175 868 474 339 147 30 4 6 4 86 1 25 115 143 299 836 1309 999
1610 1440 1368 1179 1316 817 804 1127 1563 1592 1646 1806 1520 1104 1332 1222 1450 1878 1589 1690 1509 1188 1068 1143 898 1540 1287 1159 1029 835 787 1326 1116 964 969 828 966 845 785 774 674 842 1061 706 776 735 526 795 194 91 37 6 11 121 106 10 77 11 385 282 1473 1303
1604 1274 1286 1433 1434 928 1027 1019 878 1159 1369 1149 1147 1025 911 947 1042 1827 1836 1305 1342 1039 1050 1231 1024 1573 1579 1378 906 1034 819 861 754 992 951 1113 851 811 806 915 1185 1284 942 847 436 278 293 287 415 244 152 323 145 54 207 52 52 135 195 366 603 1386
1810 1809 1573 1446 1316 1136 1181 1216 1082 1130 1104 756 889 914 892 909 984 1354 1339 1644 1194 1177 1053 1304 1202 1767 1647 1484 1261 1043 907 965 896 920 993 1035 949 949 844 940 1058 1265 836 570 546 306 221 236 293 507 435 930 740 788 614 367 240 106 28 238 224 427
1728 1579 1420 1126 1183 1196 1277 1340 1105 914 837 1088 838 781 792 836 876 938 1035 1216 1525 1348 1364 1018 1216 1288 1798 1622 1165 883 835 872 927 1031 1018 918 1039 882 1000 934 1130 1120 1160 916 523 364 503 482 351 974 1015 694 633 605 748 526 474 403 474 93 138 231
1724 1530 1508 1563 1467 1427 1051 930 922 932 870 455 440 739 708 500 633 738 786 976 1044 1358 1538 1179 1200 1049 1628 979 837 768 655 676 1023 1038 970 998 1008 1010 934 878 891 930 925 909 806 1222 848 445 52 337 771 714 1138 1240 846 874 698 655 603 486 376 374
1852 1744 1607 1623 1620 1362 1275 544 307 538 183 362 448 225 781 481 543 677 784 846 990 1280 825 825 815 755 1442 1053 1135 848 861 566 854 832 896 874 952 974 971 898 941 827 799 673 649 862 988 987 545 561 730 961 848 1238 1213 1232 776 883 859 493 429 524
1983 1742 1530 1380 1020 667 671 639 491 321 556 616 510 494 708 408 530 471 398 684 509 999 456 836 876 872 1145 780 421 1340 897 803 859 783 928 729 950 898 1000 873 823 776 893 770 662 938 1057 867 690 630 414 665 946 887 1543 1020 877 661 1356 718 437 326
1776 1608 1212 978 942 746 775 630 745 543 116 340 332 481 835 741 422 369 310 124 138 271 170 131 333 532 658 405 118 700 818 842 604 301 912 839 816 882 1079 937 861 871 897 725 728 792 775 754 577 515 828 771 816 976 1099 970 701 389 430 688 468 401
1637 1444 1419 1237 1322 996 916 413 545 325 264 103 14 298 397 474 355 505 410 266 488 126 95 450 95 183 0 482 108 1041 436 661 898 974 1345 1285 1077 907 872 738 845 787 719 709 627 648 706 557 493 418 524 502 718 1204 1290 1457 1385 676 990 209 14 351
1340 1280 1292 1345 935 1072 724 850 806 364 682 364 459 544 237 319 334 3 144 172 377 492 300 77 82 83 498 217 259 462 659 855 548 644 879 1016 942 687 746 722 735 646 670 739 709 669 660 683 722 646 535 427 563 819 1207 1232 1582 1449 872 246 65 136
1272 1167 1303 1090 1073 960 1031 757 833 798 869 726 371 274 352 306 115 196 42 44 105 536 435 255 130 6 2 11 239 656 45 260 392 378 1250 754 1041 850 544 477 311 262 484 420 584 586 692 674 572 556 381 468 635 627 514 857 882 1538 1485 1143 1023 826
1170 1134 1044 1015 962 859 874 807 872 813 287 172 242 274 243 161 148 0 171 202 147 187 104 145 116 10 4 15 17 34 160 59 21 59 35 339 317 258 451 637 612 630 688 593 432 520 436 628 572 803 500 411 491 510 526 818 980 1204 1318 1040 882 1191
1188 1024 924 1057 848 875 920 711 663 526 288 209 289 356 396 53 128 281 0 187 182 110 132 328 0 0 11 40 72 30 0 0 0 0 0 1 0 4 0 0 102 876 991 546 545 556 395 454 447 454 362 391 451 391 443 540 621 679 1202 964 1110 1075
1219 1008 938 980 669 620 672 581 520 263 154 342 408 684 299 427 202 11 411 186 120 295 84 48 34 27 9 2 11 0 0 0 0 0 0 0 0 0 0 0 0 0 2 284 569 289 413 518 535 565 361 424 352 204 382 422 512 391 494 899 1005 948
1200 1013 964 909 428 461 473 412 365 203 216 371 569 301 525 436 397 248 200 80 28 64 2 3 52 0 0 0 0 0 0 0 3 0 0 0 0 0 0 3 1 2 1 3 7 86 279 541 283 387 594 333 158 354 234 164 227 278 316 411 724 800
1262 1157 1194 784 407 443 506 355 452 318 235 538 381 345 106 3 204 224 68 147 121 0 9 3 0 0 0 0 0 0 0 0 0 0 0 0 0 0 1 1 6 13 3 0 0 0 0 0 0 0 381 616 346 313 299 170 114 249 412 202 393 432
1348 1188 1156 707 486 565 566 388 572 367 511 412 185 118 25 116 127 222 138 101 46 194 0 0 0 0 0 0 0 0 0 0 0 0 0 0 0 0 1 0 2 2 4 2 0 0 0 0 0 0 0 0 5 263 424 253 319 272 148 72 41 98
1290 1281 1116 646 594 701 585 445 561 480 690 330 193 271 98 115 70 209 149 92 100 89 36 0 0 0 0 0 0 0 0 0 0 0 0 0 0 1 20 26 14 5 4 9 8 8 11 11 0 0 0 0 0 0 0 0 0 0 0 3 6 0
1331 1422 1144 614 715 754 635 474 561 394 703 266 189 302 102 154 96 121 168 86 324 98 36 14 5 3 0 0 0 0 0 0 0 0 0 0 0 0 0 0 1 2 1 3 4 0 0 0 2 0 0 0 0 0 0 0 0 0 0 0 0 0
1343 1482 1213 627 738 776 701 488 657 342 738 394 314 448 158 266 122 284 133 112 220 101 89 4 13 37 0 0 1 0 2 0 0 0 0 0 0 0 0 0 0 0 0 0 0 0 0 0 0 0 6 0 0 0 0 0 0 0 0 0 0 0
1285 1556 1236 709 728 783 763 605 777 382 798 529 537 661 256 325 246 313 177 251 200 223 160 137 100 98 12 5 3 3 5 0 0 0 0 0 0 0 0 0 0 0 0 0 0 0 0 0 0 0 0 0 0 0 0 0 0 0 0 0 0 0
1224 1564 1254 742 701 698 770 814 889 471 707 418 687 560 489 426 281 426 324 236 227 334 299 146 100 282 5 87 81 3 1 0 0 0 0 0 0 0 0 0 0 0 0 0 0 0 0 0 0 0 0 0 0 0 0 0 0 0 0 0 0 0
1186 1470 1297 789 757 611 752 878 976 683 634 575 339 416 447 443 490 526 604 304 282 280 376 246 149 300 29 117 193 52 23 0 0 0 0 0 0 0 0 2 0 0 0 0 0 0 0 0 0 0 0 0 0 0 0 0 0 0 0 0 0 0
841 1192 1360 863 813 675 757 924 977 1051 688 839 457 458 380 582 545 477 697 600 346 254 477 343 300 419 110 166 312 191 16 8 1 0 0 0 0 0 0 2 0 0 0 0 0 0 0 0 0 0 0 0 0 0 0 0 0 0 0 0 0 0
Wind_Speed
29 30 28 29 27 28 29 31 31 33 33 33 32 36 40 40 39 34 30 29 27 26 26 24 21 18 20 18 19 21 18 17 18 19 20 21 21 21 20 20 20 19 18 16 16 15 16 16 15 15 15 16 18 19 19 20 19 18 22 21 26 29
27 29 29 27 26 26 28 29 30 31 31 31 32 34 35 33 29 22 23 23 24 25 24 21 20 17 18 20 20 22 19 20 19 20 21 22 22 22 22 22 22 21 20 18 17 17 17 15 15 14 14 16 20 19 20 19 21 23 23 20 25 28
30 32 32 29 26 26 29 28 31 30 29 29 29 32 33 33 22 17 21 22 21 23 21 21 19 20 18 19 20 22 20 20 21 21 22 22 24 23 23 23 23 23 22 20 19 17 17 17 17 14 15 18 nan 19 19 22 25 23 24 20 23 29
34 34 31 29 27 28 28 29 30 29 27 27 28 31 33 27 23 18 21 24 18 17 19 19 17 16 17 16 18 21 21 21 22 21 21 22 21 22 22 22 23 23 24 22 nan nan nan 17 nan nan nan 19 20 18 23 27 25 25 27 22 24 28
35 33 33 30 29 29 29 30 28 28 28 27 28 31 27 23 24 20 20 24 20 18 17 17 15 17 18 14 16 18 18 18 18 19 20 19 20 19 21 21 21 22 22 21 20 19 18 19 22 nan nan nan 19 20 25 26 25 29 28 24 24 27
35 36 35 31 30 30 30 30 29 30 29 25 29 29 23 26 24 22 21 23 21 20 19 17 15 15 18 18 12 13 14 15 15 18 18 15 16 17 18 17 20 20 19 19 18 19 21 21 24 21 nan nan 19 23 25 26 26 30 28 27 26 28
33 35 34 32 30 29 29 27 28 27 31 27 29 25 27 26 25 24 22 20 19 20 19 17 15 16 17 17 10 10 15 13 11 16 16 13 15 17 18 17 22 20 20 19 19 21 24 24 21 21 23 23 23 23 24 22 28 31 29 28 28 28
32 33 31 32 31 30 29 27 26 27 29 30 30 24 25 25 26 25 24 20 17 17 17 17 16 15 15 15 15 15 12 10 12 15 15 16 17 16 16 16 19 19 19 20 18 19 24 23 21 22 23 nan 23 22 23 22 27 28 30 29 30 27
31 31 31 30 29 28 24 26 27 28 28 29 29 29 28 27 27 27 22 16 13 14 15 16 15 14 16 15 18 16 13 12 13 15 16 15 17 15 13 15 18 19 20 19 19 20 22 23 24 22 22 21 nan nan 23 25 27 27 30 30 31 29
32 30 32 32 30 28 24 23 24 26 26 26 25 26 27 26 25 25 24 15 8 13 15 14 13 14 13 15 16 16 14 12 14 17 16 17 17 17 15 17 18 17 15 15 17 18 21 23 23 21 22 22 nan 23 25 24 26 28 30 30 32 31
30 30 33 36 33 34 30 26 25 23 22 23 21 23 26 24 22 21 24 22 13 13 14 14 14 13 16 15 15 16 17 15 19 20 14 18 16 20 22 21 20 16 13 16 16 16 21 23 23 21 21 nan nan nan nan 25 26 29 29 30 32 33
31 29 29 31 34 35 32 30 26 24 22 21 20 21 25 22 20 19 21 21 17 14 16 15 13 14 15 15 17 19 18 18 19 16 17 18 22 24 19 15 16 12 11 17 14 15 20 21 22 nan nan nan nan nan nan nan 26 29 31 31 31 32
36 33 31 29 28 29 30 30 27 26 24 21 20 20 24 21 19 19 20 20 18 16 15 16 15 13 14 16 19 21 20 18 18 20 20 20 21 16 12 13 13 9 4 13 13 14 17 25 22 nan nan nan nan nan nan nan 28 28 30 31 30 33
33 36 35 31 29 29 28 29 26 26 25 24 21 20 22 21 18 19 19 20 20 17 16 18 14 13 14 17 19 21 18 19 21 21 22 19 18 17 13 11 10 9 9 11 13 14 15 21 19 nan nan nan nan 26 28 nan nan nan 28 30 32 32
34 35 35 32 30 29 25 24 27 26 24 24 25 22 21 20 18 18 21 22 18 18 16 17 13 13 15 18 20 22 20 22 21 22 18 15 16 17 18 14 11 10 13 12 14 13 15 17 20 18 20 23 24 nan 29 nan nan 27 28 30 34 31
35 36 35 33 30 29 28 27 27 27 25 23 25 27 24 21 19 19 19 23 22 16 14 16 15 16 18 18 21 23 25 25 25 24 18 14 14 15 18 16 10 13 15 13 14 15 15 17 18 22 21 24 27 30 31 31 30 29 nan 29 31 30
35 34 32 31 30 29 28 27 27 26 25 24 25 27 26 25 24 23 22 22 22 20 20 23 17 20 16 20 22 25 23 27 22 24 24 21 20 17 17 17 16 16 16 16 16 16 20 21 20 26 23 25 27 29 30 31 33 33 34 nan 29 27
31 30 28 27 27 27 28 28 27 26 26 26 25 25 25 26 26 26 25 24 22 20 19 22 23 26 22 26 25 26 26 25 23 22 23 23 21 20 19 19 16 17 19 19 19 21 21 23 nan 23 23 22 22 25 25 29 29 30 31 32 33 32
29 27 25 25 25 27 27 29 27 28 26 27 29 25 25 28 28 27 28 25 24 23 22 22 24 23 25 25 28 29 29 26 26 26 21 23 19 20 22 20 18 18 19 20 20 21 23 24 27 22 22 22 20 20 21 22 25 27 32 32 31 31
28 26 24 23 24 25 26 27 27 26 27 27 28 27 26 29 27 28 27 28 27 24 26 25 25 26 27 27 26 30 31 29 29 29 27 23 19 20 23 21 20 19 19 21 22 22 24 26 25 24 21 20 19 18 20 20 23 26 32 33 32 30
27 25 23 22 22 24 26 27 27 29 30 27 30 28 28 28 29 29 27 28 27 28 27 28 26 28 29 27 27 28 30 31 28 30 28 24 21 20 22 24 23 21 21 22 23 25 26 25 26 24 24 22 21 19 19 20 22 22 24 28 31 29
26 23 23 22 22 24 23 27 25 27 27 29 nan 29 30 29 29 28 27 27 27 27 nan 29 nan 30 nan 29 28 29 31 29 29 29 27 27 27 24 24 24 23 24 24 22 24 27 26 26 25 25 25 24 22 21 20 21 24 25 26 24 nan 28
24 24 22 23 23 24 23 23 23 24 26 30 29 29 29 28 29 nan 26 28 27 26 28 nan nan nan 29 32 29 27 31 30 30 28 29 30 31 28 27 25 25 25 25 25 24 26 26 25 27 26 26 25 23 23 23 23 26 26 25 25 nan 24
25 25 24 24 25 25 24 25 24 26 26 28 28 28 28 28 27 28 nan nan 27 25 27 29 28 nan nan nan 27 29 nan 29 29 27 27 28 29 30 27 27 25 25 25 26 24 27 26 26 25 25 25 24 24 24 25 25 26 26 26 26 26 26
26 27 26 25 27 26 26 25 25 26 26 27 26 26 26 27 27 nan 28 28 26 27 28 28 29 nan nan nan nan nan 29 nan nan nan nan 26 28 29 29 26 25 26 26 26 27 26 26 24 24 22 25 25 25 25 25 26 25 26 23 22 22 22
28 29 28 28 28 27 26 26 25 26 25 26 26 25 26 nan 26 27 nan 26 27 28 27 27 nan nan nan nan nan nan nan nan nan nan nan nan nan nan nan nan 25 24 25 27 29 28 26 24 26 25 26 26 25 26 26 25 25 25 24 23 21 20
31 31 31 30 29 28 27 26 25 24 24 25 26 25 26 26 29 nan 27 28 26 25 nan nan nan nan nan nan nan nan nan nan nan nan nan nan nan nan nan nan nan nan nan 27 26 27 25 26 27 24 24 26 27 26 28 25 25 23 23 24 23 19
33 35 33 32 30 29 29 27 25 24 24 25 26 27 25 26 27 26 26 nan nan nan nan nan nan nan nan nan nan nan nan nan nan nan nan nan nan nan nan nan nan nan nan nan nan nan 25 24 24 24 25 26 26 27 29 27 24 25 22 20 19 19
36 37 37 35 32 31 30 29 27 27 24 26 28 26 25 nan 24 24 nan 22 25 nan nan nan nan nan nan nan nan nan nan nan nan nan nan nan nan nan nan nan nan nan nan nan nan nan nan nan nan nan 24 25 26 26 27 26 27 26 26 24 21 20
38 38 39 37 33 33 33 32 30 28 25 28 26 25 nan 24 23 21 22 23 nan 24 nan nan nan nan nan nan nan nan nan nan nan nan nan nan nan nan nan nan nan nan nan nan nan nan nan nan nan nan nan nan nan 26 27 27 27 26 27 nan nan nan
39 39 41 39 35 34 35 33 31 27 26 27 25 24 nan 23 nan 20 21 nan 20 nan nan nan nan nan nan nan nan nan nan nan nan nan nan nan nan nan nan nan nan nan nan nan nan nan nan nan nan nan nan nan nan nan nan nan nan nan nan nan nan nan
41 41 42 41 37 35 36 34 31 28 25 25 23 23 23 22 nan 21 21 nan 21 nan nan nan nan nan nan nan nan nan nan nan nan nan nan nan nan nan nan nan nan nan nan nan nan nan nan nan nan nan nan nan nan nan nan nan nan nan nan nan nan nan
42 43 43 43 40 37 36 34 31 28 25 23 21 21 21 21 21 21 21 19 21 21 nan nan nan nan nan nan nan nan nan nan nan nan nan nan nan nan nan nan nan nan nan nan nan nan nan nan nan nan nan nan nan nan nan nan nan nan nan nan nan nan
42 44 43 43 42 38 35 32 30 28 24 23 21 20 20 20 20 20 21 20 20 20 21 20 19 nan nan nan nan nan nan nan nan nan nan nan nan nan nan nan nan nan nan nan nan nan nan nan nan nan nan nan nan nan nan nan nan nan nan nan nan nan
43 44 43 45 42 38 35 31 28 28 24 23 22 20 20 20 20 18 21 21 19 20 21 21 nan 20 nan nan nan nan nan nan nan nan nan nan nan nan nan nan nan nan nan nan nan nan nan nan nan nan nan nan nan nan nan nan nan nan nan nan nan nan
44 44 43 44 42 37 33 29 27 27 23 23 21 20 19 22 21 18 21 22 19 19 21 21 22 21 nan 18 19 nan nan nan nan nan nan nan nan nan nan nan nan nan nan nan nan nan nan nan nan nan nan nan nan nan nan nan nan nan nan nan nan nan
38 40 42 41 40 35 31 28 26 26 23 22 21 20 19 22 24 21 21 23 22 20 20 22 22 22 21 18 19 18 nan nan nan nan nan nan nan nan nan nan nan nan nan nan nan nan nan nan nan nan nan nan nan nan nan nan nan nan nan nan nan nan
Wind_Direction
287 291 293 292 293 293 291 290 285 283 279 281 280 279 273 273 272 275 280 282 286 281 278 276 276 280 279 270 263 247 265 260 262 266 269 270 269 270 270 269 268 270 270 268 266 262 257 254 253 249 245 238 233 226 225 225 222 234 246 237 228 227
288 292 284 282 288 289 290 291 286 282 278 276 275 275 272 268 265 274 281 278 277 271 268 269 274 277 268 264 264 258 261 263 260 264 264 266 268 269 271 272 271 271 271 269 267 255 252 251 255 253 245 242 239 233 227 226 229 229 246 238 231 233
293 291 292 291 287 290 290 288 285 282 278 278 279 276 266 271 285 293 283 278 273 273 274 268 264 269 261 270 268 269 263 265 261 263 262 258 264 268 271 272 273 273 272 271 261 253 252 254 251 258 251 243 nan 238 234 234 231 229 242 245 239 246
295 292 292 289 291 286 288 287 284 278 272 273 269 267 269 278 280 284 283 269 267 274 272 259 260 274 256 253 257 268 261 259 259 262 263 258 261 266 272 275 276 276 269 265 nan nan nan 257 nan nan nan 245 243 237 243 238 232 232 244 247 250 257
292 290 292 291 292 291 291 288 284 279 277 272 270 261 269 285 277 277 274 273 268 264 270 266 259 272 275 262 256 259 258 255 254 255 263 254 259 264 270 272 272 274 269 269 267 264 257 250 259 nan nan nan 244 245 247 245 237 235 243 240 252 262
293 292 288 287 287 289 294 293 290 285 279 274 270 276 284 276 278 276 277 280 271 262 269 270 263 264 269 255 235 245 251 250 257 257 261 256 258 258 270 270 274 273 269 266 266 263 259 251 246 256 nan nan 245 243 242 244 242 241 241 240 251 265
290 287 287 288 287 285 285 286 288 287 286 282 276 276 281 279 278 277 276 272 270 270 268 270 264 262 265 272 279 258 246 244 244 249 261 259 259 252 254 253 258 261 254 251 250 253 258 254 247 244 253 251 249 242 246 242 246 248 247 238 246 263
291 287 284 288 293 289 293 295 294 290 281 284 282 282 283 280 280 278 275 268 269 264 268 269 269 265 258 264 269 259 245 244 245 247 247 248 252 249 249 249 256 254 258 253 241 246 250 257 248 243 239 nan 252 241 245 250 251 251 250 241 241 253
290 287 286 284 285 287 282 281 282 284 285 286 285 290 287 283 278 278 275 275 269 262 260 258 267 270 260 265 261 258 250 239 241 242 245 247 255 255 242 247 249 252 251 251 249 238 242 245 255 242 244 244 nan nan 242 238 248 249 250 243 242 246
296 297 294 290 286 287 286 280 281 282 286 290 288 289 288 285 285 284 286 288 287 275 271 269 264 269 276 267 269 267 264 249 238 242 242 246 246 255 249 245 246 247 248 254 253 248 240 244 252 250 244 240 nan 244 245 244 246 249 249 247 244 242
296 299 303 303 303 301 297 290 288 290 291 293 291 291 284 286 286 288 286 296 298 283 281 281 281 273 268 264 263 266 255 240 241 236 244 256 250 245 242 240 232 236 242 244 243 236 237 230 235 257 253 nan nan nan nan 244 245 249 247 250 246 242
301 302 300 302 305 306 304 300 302 298 297 294 295 292 287 283 283 280 282 282 280 276 269 269 273 280 278 275 271 268 268 266 270 275 261 254 252 252 254 256 246 223 231 261 253 240 230 231 235 nan nan nan nan nan nan nan 243 244 248 247 248 245
306 308 302 302 303 307 305 304 307 303 303 300 298 295 292 293 290 284 282 279 273 268 260 263 266 263 267 269 271 267 270 280 283 277 273 269 276 270 279 273 258 258 277 277 277 266 251 241 226 nan nan nan nan nan nan nan 247 236 244 247 246 246
297 295 297 297 305 304 303 304 306 303 302 301 292 291 290 291 284 284 280 275 270 265 261 259 259 271 270 271 275 281 283 280 270 268 272 276 286 284 270 253 255 280 269 266 272 271 263 258 249 nan nan nan nan 236 244 nan nan nan 238 242 249 245
291 294 293 293 290 293 287 284 280 285 291 295 293 289 286 288 289 279 278 279 273 270 271 277 279 281 282 282 289 288 287 269 266 262 257 254 252 261 272 259 254 264 261 258 266 265 268 265 267 261 249 231 229 nan 232 nan nan 246 240 241 249 250
290 289 290 290 291 292 292 287 290 293 292 293 292 295 296 292 291 289 283 279 285 279 286 286 293 286 280 282 282 286 282 288 291 285 285 276 278 281 279 275 273 275 268 261 259 262 261 261 257 260 249 245 232 228 229 228 232 233 nan 245 249 248
289 288 285 284 283 287 292 291 289 291 296 295 296 297 297 299 296 288 286 278 284 294 292 296 293 274 278 277 274 270 275 276 281 294 298 298 296 284 279 283 278 267 268 267 263 257 252 246 253 246 250 246 236 227 228 230 228 228 222 nan 246 253
288 284 281 277 283 286 288 292 291 288 286 288 287 283 283 281 283 284 281 276 275 273 271 277 288 301 291 283 287 291 289 290 289 291 289 290 289 291 289 282 283 279 272 268 267 264 263 261 nan 264 264 257 253 245 231 226 227 231 232 233 233 234
284 283 279 281 278 279 281 279 287 289 289 290 285 283 289 288 283 287 288 290 287 280 278 277 279 280 284 289 288 289 290 291 288 280 278 281 290 289 291 294 288 280 274 275 273 272 269 267 268 273 279 279 268 260 254 242 232 234 236 233 232 234
283 283 283 282 286 287 289 289 288 288 285 281 283 284 281 284 285 277 277 279 282 276 274 271 273 276 277 272 275 284 289 290 290 289 290 292 287 290 292 287 286 281 279 276 272 271 269 267 267 271 266 266 271 268 264 258 249 239 236 232 232 233
283 285 287 289 290 292 291 289 286 283 288 289 285 285 279 275 274 274 271 273 272 274 274 274 273 277 278 281 280 275 279 288 288 286 287 288 288 279 277 280 279 283 277 274 273 272 269 270 267 265 268 263 261 262 263 264 265 258 250 237 232 233
285 287 289 291 288 290 293 293 293 292 293 290 nan 290 284 281 279 279 280 277 277 279 nan 281 nan 278 nan 279 275 277 278 273 273 281 286 284 280 270 272 272 274 270 269 269 270 272 275 272 267 266 260 257 260 267 267 267 265 266 266 257 nan 234
287 287 288 287 291 288 284 285 289 287 286 281 273 276 280 281 282 nan 283 282 280 278 277 nan nan nan 280 269 272 273 275 277 277 277 275 276 278 279 275 270 269 267 264 267 268 269 270 267 267 265 264 260 260 261 262 262 264 264 265 263 nan 251
290 289 287 291 289 286 285 286 283 281 276 281 281 278 276 277 280 278 nan nan 275 274 273 271 271 nan nan nan 275 272 nan 268 269 267 273 279 278 278 275 276 275 272 270 267 264 262 261 263 262 265 265 268 266 265 262 262 264 264 263 262 257 257
292 291 291 290 289 288 289 287 286 287 287 284 283 283 282 279 276 nan 277 274 274 274 273 273 273 nan nan nan nan nan 269 nan nan nan nan 266 269 268 274 275 273 270 272 270 266 266 263 262 265 264 268 267 268 268 266 264 264 267 267 265 261 262
292 292 292 291 291 293 295 294 295 295 293 291 288 288 283 nan 278 273 nan 276 272 270 270 269 nan nan nan nan nan nan nan nan nan nan nan nan nan nan nan nan 266 269 270 269 272 269 267 264 267 266 266 267 264 266 265 262 262 266 266 267 266 264
294 294 294 294 296 298 297 297 299 299 300 297 292 283 278 275 275 nan 273 271 274 273 nan nan nan nan nan nan nan nan nan nan nan nan nan nan nan nan nan nan nan nan nan 268 271 272 274 272 271 271 271 266 266 265 263 263 264 263 267 265 263 263
294 294 295 296 299 300 299 301 303 301 302 298 290 285 281 276 274 272 275 nan nan nan nan nan nan nan nan nan nan nan nan nan nan nan nan nan nan nan nan nan nan nan nan nan nan nan 270 272 270 270 268 269 269 266 268 269 272 270 269 262 260 266
294 294 295 298 301 302 300 303 304 302 301 292 287 284 281 nan 276 274 nan 273 270 nan nan nan nan nan nan nan nan nan nan nan nan nan nan nan nan nan nan nan nan nan nan nan nan nan nan nan nan nan 268 270 272 270 269 267 270 267 266 268 267 269
292 293 295 299 301 302 301 304 304 301 297 289 287 285 nan 278 277 278 273 270 nan 273 nan nan nan nan nan nan nan nan nan nan nan nan nan nan nan nan nan nan nan nan nan nan nan nan nan nan nan nan nan nan nan 267 269 265 265 267 265 nan nan nan
291 291 295 299 300 301 300 303 300 297 291 287 284 282 nan 278 nan 276 275 nan 275 nan nan nan nan nan nan nan nan nan nan nan nan nan nan nan nan nan nan nan nan nan nan nan nan nan nan nan nan nan nan nan nan nan nan nan nan nan nan nan nan nan
292 293 296 297 298 300 299 299 295 291 284 282 280 278 280 280 nan 276 276 nan 274 nan nan nan nan nan nan nan nan nan nan nan nan nan nan nan nan nan nan nan nan nan nan nan nan nan nan nan nan nan nan nan nan nan nan nan nan nan nan nan nan nan
292 293 295 295 297 298 296 296 292 287 278 278 277 277 280 279 279 277 280 279 278 279 nan nan nan nan nan nan nan nan nan nan nan nan nan nan nan nan nan nan nan nan nan nan nan nan nan nan nan nan nan nan nan nan nan nan nan nan nan nan nan nan
289 291 291 292 294 295 293 291 285 280 273 273 276 279 281 281 281 282 283 281 282 283 283 282 282 nan nan nan nan nan nan nan nan nan nan nan nan nan nan nan nan nan nan nan nan nan nan nan nan nan nan nan nan nan nan nan nan nan nan nan nan nan
287 288 289 289 289 290 288 287 279 276 269 271 273 275 281 280 282 283 285 282 282 284 285 286 nan 283 nan nan nan nan nan nan nan nan nan nan nan nan nan nan nan nan nan nan nan nan nan nan nan nan nan nan nan nan nan nan nan nan nan nan nan nan
284 283 284 285 285 285 283 280 275 272 271 273 273 274 276 282 281 279 281 282 282 281 283 286 285 284 nan 287 284 nan nan nan nan nan nan nan nan nan nan nan nan nan nan nan nan nan nan nan nan nan nan nan nan nan nan nan nan nan nan nan nan nan
262 276 280 279 279 280 277 277 272 269 269 271 277 276 277 281 283 278 275 279 281 281 280 284 285 284 288 284 283 284 nan nan nan nan nan nan nan nan nan nan nan nan nan nan nan nan nan nan nan nan nan nan nan nan nan nan nan nan nan nan nan nan